Вернуться в каталог

STARLINK-34774

АктивенСвязьVLEO
NORAD 66485·PAYLOAD·🇺🇸 United States

Запущен Nov 15, 2025 с Cape Canaveral Space Force Station

Loading…

Ближайшие Пролёты (ближайшие 24 часа)

TLE

СвежийSource: CelesTrak SupGP

Эпоха: Sep 15, 2026, 03:22 UTC

1 66485C 25263A   26258.14076389  .00040383  00000+0  14621-2 0  2589
2 66485  43.0036   0.5018 0001648 267.1646 186.9568 15.27570781    19

Отслеживайте STARLINK-34774 в реальном времени с AllMySat

Download on the App Store